Weather in Primorsky

Russia / Republic of Crimea     45°07′09″N   35°28′54″E
temp.,
°C
wind,
m/s
gust,
m/s
humid.,
%
clouds,
%
prec.,
mm/h
press.,
hPa
HPBL,
m
28 february, sun
sun2800:00+6n101190100 0.9 1018557
03:00+6nnw91086100 1.1 1018705
06:00+6nnw91076100 0.0 10191036
09:00+4nnw9108995 0.1 1020747
12:00+5nnw797999 0.2 1021902
15:00+5nnw897991 0.4 1021916
18:00+5nnw7879100 0.2 1022838
21:00+5nw687597 0.3 1023836
1 march, mon
mon100:00+4nw678075 0.1 1024635
03:00+4nw678354 0.1 1024445
06:00+3nw568198 0.0 1025416
09:00+3nnw568199 0.0 1026417
12:00+4nnw337077 0.0 1027756
15:00+5n337288 0.1 1027660
18:00+4n447295 0.0 1028661
21:00+4n337297 0.1 1029542
2 march, tue
tue200:00+3nnw457848 0.0 1030442
03:00+3nw567923 0.0 1030428
06:00+3nw56710 0.0 1030443
09:00+3nw56727 0.0 1030395
12:00+4nw45580 0.0 10301048
15:00+6sw66626 0.0 1028975
18:00+6wsw786829 0.0 10261083
21:00+6wnw466660 0.0 1026819
3 march, wed
wed300:00+5w7127153 0.0 1025719
03:00+7w7107570 0.1 1024697
06:00+6wnw7108498 0.1 1024591
09:00+5nw798370 0.1 1025548
12:00+6nw687576 0.0 1025668
15:00+8nnw577171 0.1 1025878
18:00+8nnw796899 0.1 10251097
21:00+7n466196 0.1 1027954
4 march, thu
thu400:00+7nw446044 0.0 1028481
03:00+6nw346122 0.0 1028203
06:00+5nnw22620 0.0 1028129
09:00+6ese11604 0.0 1028181
12:00+7s45641 0.0 1027689
15:00+7ssw67692 0.0 1026908
18:00+8s89771 0.0 1024738
21:00+8ssw78801 0.0 1023646